�N����,����,�~����,�C��,���x,�C��,����,���ϕ���,�ő�u�ԕ���,�ő厞����,���˗�,�I�_���x,�n�����x,�ő啗���N��,DTYPE
"17/11/23","00:10",0.0,9.5,98.3,1006.7,307.0,0.7,1.3,322.2,0.00,9.3,10.5,"00:09:00",1
"17/11/23","00:20",0.2,9.6,97.8,1006.9,318.8,1.2,1.6,343.0,0.00,9.3,10.4,"00:16:36",1
"17/11/23","00:30",0.2,9.5,98.5,1006.7,294.3,0.7,0.9,285.0,0.00,9.3,10.3,"00:20:38",1
"17/11/23","00:40",0.2,9.7,97.8,1006.7,345.6,0.6,1.1,336.6,0.00,9.4,10.5,"00:30:50",1
"17/11/23","00:50",0.2,9.5,98.5,1006.4,328.8,1.0,1.7,321.6,0.00,9.3,10.4,"00:45:26",1
"17/11/23","01:00",0.2,9.6,97.9,1006.2,319.6,0.3,0.8,321.3,0.00,9.3,10.6,"00:50:24",1
"17/11/23","01:10",0.0,9.4,98.6,1006.2,309.6,1.0,1.4,311.1,0.00,9.2,10.7,"01:06:24",1
"17/11/23","01:20",0.4,9.6,98.1,1006.2,317.1,1.0,1.2,314.7,0.00,9.4,10.3,"01:10:08",1
"17/11/23","01:30",0.2,9.6,98.1,1006.2,292.0,1.1,1.6,325.4,0.00,9.4,10.4,"01:28:00",1
"17/11/23","01:40",0.4,9.6,98.0,1006.4,328.9,1.3,1.7,331.9,0.00,9.3,10.6,"01:34:24",1
"17/11/23","01:50",0.6,9.6,98.1,1006.2,333.2,1.2,1.7,329.7,0.00,9.4,10.3,"01:40:24",1
"17/11/23","02:00",0.2,9.5,98.1,1006.9,323.6,1.2,1.8,336.9,0.00,9.3,10.5,"01:53:20",1
"17/11/23","02:10",0.2,9.6,98.0,1006.7,292.4,1.2,1.8,325.1,0.00,9.3,10.2,"02:05:04",1
"17/11/23","02:20",0.4,9.5,98.0,1006.2,290.7,1.1,1.3,314.9,0.00,9.2,10.2,"02:19:28",1
"17/11/23","02:30",0.6,9.5,98.0,1006.0,319.8,0.7,1.1,318.5,0.00,9.2,10.3,"02:29:04",1
"17/11/23","02:40",0.4,9.5,98.1,1006.2,283.1,0.7,1.1,284.9,0.00,9.3,10.5,"02:32:10",1
"17/11/23","02:50",0.2,9.5,98.1,1006.0,336.3,0.5,0.8,353.3,0.00,9.3,10.4,"02:49:32",1
"17/11/23","03:00",0.0,9.5,98.0,1005.2,290.5,0.3,1.0,332.0,0.00,9.2,10.3,"02:51:22",1
"17/11/23","03:10",0.2,9.5,98.1,1005.2,247.8,0.3,0.6,231.8,0.00,9.3,10.4,"03:00:38",1
"17/11/23","03:20",0.0,9.5,98.1,1005.0,222.1,0.3,0.6,242.0,0.00,9.3,10.5,"03:14:32",1
"17/11/23","03:30",0.2,9.4,98.1,1005.5,274.6,0.5,0.9,319.5,0.00,9.2,10.3,"03:26:44",1
"17/11/23","03:40",0.0,9.4,98.3,1005.5,240.2,0.5,1.1,349.0,0.00,9.2,10.5,"03:39:06",1
"17/11/23","03:50",0.0,9.4,98.2,1005.0,311.9,0.6,1.2,343.9,0.00,9.2,10.3,"03:41:58",1
"17/11/23","04:00",0.0,9.2,98.1,1004.8,273.2,0.1,0.4,329.1,0.00,9.0,10.5,"03:51:14",1
"17/11/23","04:10",0.0,9.1,98.4,1005.0,252.5,0.5,0.8,234.5,0.00,8.9,10.4,"04:07:12",1
"17/11/23","04:20",0.0,9.2,98.5,1004.5,283.7,0.3,0.8,298.3,0.00,9.0,10.3,"04:15:44",1
"17/11/23","04:30",0.0,9.3,98.5,1004.5,295.9,0.3,1.0,315.7,0.00,9.1,10.1,"04:22:50",1
"17/11/23","04:40",0.0,9.3,98.5,1004.8,338.3,0.7,1.2,346.2,0.00,9.1,10.4,"04:39:44",1
"17/11/23","04:50",0.2,9.3,98.5,1004.3,329.3,0.7,1.2,326.5,0.00,9.1,10.4,"04:45:14",1
"17/11/23","05:00",0.0,9.4,98.6,1004.8,323.1,1.0,2.0,328.0,0.00,9.2,10.3,"04:55:58",1
"17/11/23","05:10",0.0,9.4,98.5,1005.2,223.6,0.2,0.5,269.1,0.00,9.2,10.4,"05:05:34",1
"17/11/23","05:20",0.0,9.4,98.6,1004.1,106.4,0.3,0.6,119.0,0.00,9.2,10.5,"05:11:32",1
"17/11/23","05:30",0.0,9.4,98.6,1004.5,48.2,0.1,0.6,54.1,0.00,9.2,10.5,"05:20:12",1
"17/11/23","05:40",0.0,9.3,98.4,1004.1,123.6,0.3,0.9,307.0,0.00,9.1,10.4,"05:39:04",1
"17/11/23","05:50",0.0,9.2,98.6,1004.1,269.7,0.5,1.1,321.7,0.00,9.0,10.4,"05:49:20",1
"17/11/23","06:00",0.0,9.1,98.8,1004.3,285.0,0.5,0.9,323.9,0.00,9.0,10.2,"05:55:52",1
"17/11/23","06:10",0.0,9.2,98.7,1004.3,314.4,0.7,1.3,318.1,0.00,9.0,10.4,"06:08:56",1
"17/11/23","06:20",0.0,9.2,98.7,1004.5,309.2,0.8,1.4,333.4,0.00,9.0,10.2,"06:10:56",1
"17/11/23","06:30",0.0,9.2,98.7,1004.5,296.8,0.5,1.4,330.4,0.00,9.0,10.4,"06:21:54",1
"17/11/23","06:40",0.0,9.2,98.6,1004.1,326.9,0.3,0.9,332.1,0.00,9.0,10.5,"06:31:20",1
"17/11/23","06:50",0.0,9.1,98.7,1004.5,303.3,0.5,1.0,318.6,0.00,8.9,10.6,"06:49:20",1
"17/11/23","07:00",0.0,9.1,98.6,1004.5,301.1,0.6,1.1,330.0,0.00,8.9,10.3,"06:52:40",1
"17/11/23","07:10",0.0,9.0,98.8,1004.8,272.4,0.3,0.9,323.4,0.00,8.9,10.3,"07:02:00",1
"17/11/23","07:20",0.0,9.0,98.9,1004.8,222.0,0.2,0.5,243.8,0.00,8.9,10.5,"07:15:12",1
"17/11/23","07:30",0.0,9.0,98.8,1004.5,331.7,0.5,1.1,304.5,0.00,8.9,10.2,"07:22:08",1
"17/11/23","07:40",0.0,9.1,98.9,1004.5,359.0,0.6,1.3,349.8,0.01,9.0,10.5,"07:33:04",1
"17/11/23","07:50",0.0,9.1,98.7,1004.1,335.8,0.3,1.4,349.0,0.01,8.9,10.4,"07:49:04",1
"17/11/23","08:00",0.0,8.9,99.1,1004.1,259.2,0.3,1.0,237.1,0.02,8.8,10.4,"07:57:28",1
"17/11/23","08:10",0.0,9.5,99.3,1004.3,280.9,0.1,0.9,120.5,0.05,9.4,10.3,"08:08:38",1
"17/11/23","08:20",0.0,10.1,99.0,1004.1,243.1,1.0,1.9,232.1,0.07,10.0,10.5,"08:13:26",1
"17/11/23","08:30",0.0,10.3,98.7,1004.1,226.6,0.8,1.4,210.4,0.10,10.1,10.4,"08:26:02",1
"17/11/23","08:40",0.0,11.2,92.9,1004.1,207.5,0.7,1.6,118.6,0.12,10.1,10.5,"08:39:36",1
"17/11/23","08:50",0.0,12.0,84.4,1004.1,294.2,1.5,3.6,318.6,0.14,9.5,10.6,"08:44:32",1
"17/11/23","09:00",0.0,12.1,79.9,1004.5,306.0,2.1,3.6,326.0,0.16,8.8,10.5,"08:53:52",1
"17/11/23","09:10",0.0,12.0,82.2,1005.0,298.8,2.1,6.5,358.3,0.18,9.1,10.7,"09:01:12",1
"17/11/23","09:20",0.0,12.3,79.6,1004.8,301.8,2.6,7.9,314.8,0.20,8.9,10.8,"09:18:32",1
"17/11/23","09:30",0.0,12.5,74.7,1005.5,326.5,4.2,8.6,330.1,0.22,8.2,10.7,"09:23:28",1
"17/11/23","09:40",0.0,12.6,73.7,1005.2,332.7,5.4,9.0,337.1,0.24,8.1,11.0,"09:39:44",1
"17/11/23","09:50",0.0,12.6,72.4,1005.2,326.0,5.1,8.8,343.1,0.28,7.8,10.7,"09:46:40",1
"17/11/23","10:00",0.0,13.0,72.8,1005.2,329.1,4.6,8.3,336.1,0.31,8.3,10.9,"09:54:56",1
"17/11/23","10:10",0.0,12.9,71.1,1005.2,330.2,4.7,10.0,0.6,0.33,7.8,11.2,"10:03:52",1
"17/11/23","10:20",0.0,12.9,69.8,1005.5,320.8,4.6,10.2,320.7,0.33,7.6,11.0,"10:17:36",1
"17/11/23","10:30",0.0,12.6,68.5,1005.7,327.5,4.5,7.8,348.0,0.28,7.0,11.2,"10:23:20",1
"17/11/23","10:40",0.0,12.7,67.9,1005.2,332.3,4.2,6.4,350.1,0.24,7.0,11.1,"10:36:00",1
"17/11/23","10:50",0.0,12.8,66.4,1005.2,329.6,3.7,8.6,340.5,0.25,6.7,11.3,"10:40:02",1
"17/11/23","11:00",0.0,13.4,65.7,1005.5,323.5,3.6,7.0,342.5,0.37,7.2,11.5,"10:59:20",1
"17/11/23","11:10",0.0,13.1,65.0,1005.2,301.1,3.5,6.3,333.6,0.34,6.7,11.5,"11:03:04",1
"17/11/23","11:20",0.0,13.7,64.3,1004.8,324.0,2.6,5.6,351.4,0.34,7.1,11.7,"11:19:52",1
"17/11/23","11:30",0.0,13.1,63.3,1004.5,317.9,2.1,4.5,316.8,0.25,6.3,11.7,"11:21:44",1
"17/11/23","11:40",0.0,13.7,63.1,1004.8,294.6,2.6,5.1,337.3,0.29,6.9,11.9,"11:37:36",1
"17/11/23","11:50",0.0,12.8,65.2,1004.8,319.1,2.3,5.0,335.6,0.09,6.5,11.9,"11:45:36",1
"17/11/23","12:00",0.0,11.6,74.0,1005.2,337.2,2.6,5.4,335.8,0.08,7.2,11.7,"11:58:40",1
"17/11/23","12:10",0.0,12.5,66.1,1005.0,341.4,3.2,6.3,342.8,0.39,6.4,11.9,"12:07:12",1
"17/11/23","12:20",0.0,12.2,67.6,1005.0,343.7,3.6,8.7,326.1,0.13,6.4,11.7,"12:14:24",1
"17/11/23","12:30",0.0,12.3,65.1,1005.0,331.5,3.2,6.5,335.7,0.12,6.0,11.7,"12:28:00",1
"17/11/23","12:40",0.0,12.4,63.1,1004.8,319.7,2.7,5.7,340.1,0.22,5.6,11.9,"12:38:24",1
"17/11/23","12:50",0.0,12.8,62.0,1004.8,309.3,3.2,7.5,343.0,0.40,5.7,11.9,"12:42:32",1
"17/11/23","13:00",0.0,12.3,63.3,1004.8,320.9,4.0,8.2,350.8,0.28,5.6,11.9,"12:58:48",1
"17/11/23","13:10",0.0,12.3,63.3,1005.0,310.3,3.2,6.8,344.2,0.20,5.6,11.9,"13:09:28",1
"17/11/23","13:20",0.0,12.1,61.7,1005.5,301.5,3.6,7.7,319.6,0.17,5.0,11.9,"13:17:12",1
"17/11/23","13:30",0.0,12.1,61.7,1005.7,300.6,4.4,7.9,345.6,0.24,5.0,12.0,"13:25:44",1
"17/11/23","13:40",0.0,11.9,62.7,1006.0,322.0,4.2,10.1,17.7,0.25,5.1,12.0,"13:35:20",1
"17/11/23","13:50",0.0,12.6,62.7,1005.5,319.2,3.2,7.7,317.9,0.32,5.7,12.0,"13:43:28",1
"17/11/23","14:00",0.0,12.2,62.1,1005.5,329.5,3.6,6.2,334.7,0.27,5.2,12.0,"13:52:08",1
"17/11/23","14:10",0.0,11.5,63.2,1006.0,329.2,3.6,8.6,303.6,0.20,4.8,12.0,"14:09:44",1
"17/11/23","14:20",0.0,11.1,64.4,1006.0,329.7,4.7,9.7,326.9,0.10,4.7,12.0,"14:17:04",1
"17/11/23","14:30",0.0,11.0,66.9,1005.7,327.0,3.7,8.6,341.4,0.06,5.1,11.8,"14:21:36",1
"17/11/23","14:40",0.0,10.7,68.6,1005.7,323.6,3.7,7.0,326.2,0.16,5.2,12.0,"14:38:08",1
"17/11/23","14:50",0.0,11.2,63.7,1006.0,305.0,3.4,7.5,350.3,0.17,4.6,12.1,"14:43:04",1
"17/11/23","15:00",0.0,11.4,62.6,1006.0,310.6,2.7,4.8,337.2,0.16,4.6,11.9,"14:56:08",1
"17/11/23","15:10",0.0,11.2,60.9,1006.7,290.4,3.0,6.0,353.4,0.13,4.0,12.0,"15:00:08",1
"17/11/23","15:20",0.0,11.1,60.3,1006.4,292.9,3.5,7.8,304.1,0.10,3.7,11.9,"15:13:44",1
"17/11/23","15:30",0.0,11.1,60.5,1006.4,298.2,2.8,6.2,318.1,0.09,3.8,11.9,"15:20:24",1
"17/11/23","15:40",0.0,10.8,57.7,1006.9,301.5,4.1,11.9,346.5,0.07,2.8,11.7,"15:37:20",1
"17/11/23","15:50",0.0,10.9,57.0,1007.1,299.4,3.5,7.4,335.1,0.06,2.8,11.7,"15:40:02",1
"17/11/23","16:00",0.0,10.5,58.2,1006.9,307.0,4.2,10.0,338.1,0.04,2.7,11.6,"15:50:24",1
"17/11/23","16:10",0.0,10.2,59.2,1007.4,303.6,3.7,7.3,323.5,0.01,2.6,11.7,"16:04:24",1
"17/11/23","16:20",0.0,9.8,61.3,1007.6,306.5,3.5,6.5,295.7,0.00,2.8,11.5,"16:18:48",1
"17/11/23","16:30",0.0,9.6,61.8,1007.6,317.4,5.0,10.2,319.8,0.00,2.7,11.4,"16:25:30",1
"17/11/23","16:40",0.0,9.4,61.8,1008.1,311.8,4.6,9.5,322.5,0.00,2.5,11.3,"16:31:44",1
"17/11/23","16:50",0.0,9.2,61.8,1008.1,316.2,4.2,6.8,315.1,0.00,2.3,11.2,"16:45:52",1
"17/11/23","17:00",0.0,8.7,64.6,1008.1,295.5,2.6,4.2,305.0,0.00,2.4,11.0,"16:54:56",1
"17/11/23","17:10",0.0,8.4,65.6,1008.3,313.4,2.6,5.6,312.6,0.00,2.4,11.0,"17:08:00",1
"17/11/23","17:20",0.0,8.2,66.9,1008.6,301.5,2.3,4.2,311.7,0.00,2.5,11.1,"17:12:48",1
"17/11/23","17:30",0.0,8.1,67.7,1008.6,296.2,2.6,5.0,337.1,0.00,2.5,10.9,"17:20:32",1
"17/11/23","17:40",0.0,8.1,66.6,1008.6,305.2,3.5,6.3,321.2,0.00,2.3,10.6,"17:35:36",1
"17/11/23","17:50",0.0,7.9,67.3,1009.0,292.8,2.7,5.0,315.5,0.00,2.3,10.7,"17:42:00",1
"17/11/23","18:00",0.0,7.6,69.1,1009.0,291.9,2.3,4.4,281.2,0.00,2.3,10.8,"17:59:12",1
"17/11/23","18:10",0.0,7.2,70.3,1009.0,295.0,2.2,3.7,317.1,0.00,2.2,10.3,"18:04:40",1
"17/11/23","18:20",0.0,7.2,71.0,1009.5,297.5,2.7,5.7,334.7,0.00,2.3,10.6,"18:14:40",1
"17/11/23","18:30",0.0,7.1,71.4,1009.7,296.4,2.6,4.5,303.0,0.00,2.3,10.3,"18:27:44",1
"17/11/23","18:40",0.0,6.8,72.4,1009.7,298.0,2.5,4.0,320.3,0.00,2.2,10.4,"18:39:04",1
"17/11/23","18:50",0.0,6.5,73.5,1010.0,299.1,2.2,3.7,307.2,0.00,2.2,10.4,"18:45:12",1
"17/11/23","19:00",0.0,6.5,75.0,1009.7,298.5,2.5,4.7,341.2,0.00,2.4,10.2,"18:52:08",1
"17/11/23","19:10",0.0,6.4,74.9,1010.0,295.5,2.3,3.7,291.4,0.00,2.3,10.2,"19:01:12",1
"17/11/23","19:20",0.0,6.2,76.0,1010.4,293.9,1.8,2.9,318.0,0.00,2.3,10.2,"19:19:52",1
"17/11/23","19:30",0.0,6.1,76.1,1010.4,305.7,2.0,2.8,332.9,0.00,2.3,10.1,"19:25:36",1
"17/11/23","19:40",0.0,6.0,76.8,1010.4,298.1,1.8,3.6,316.3,0.00,2.3,9.9,"19:34:16",1
"17/11/23","19:50",0.0,6.4,75.7,1010.4,307.3,2.7,5.6,345.8,0.00,2.5,9.9,"19:41:04",1
"17/11/23","20:00",0.0,6.5,74.7,1010.2,289.5,2.3,4.0,300.4,0.00,2.4,9.9,"19:54:16",1
"17/11/23","20:10",0.0,6.4,75.2,1010.7,297.0,2.3,4.4,321.4,0.00,2.4,10.1,"20:07:04",1
"17/11/23","20:20",0.0,6.4,75.5,1010.4,293.8,3.0,5.1,316.6,0.00,2.4,9.7,"20:12:00",1
"17/11/23","20:30",0.0,6.4,76.1,1010.4,297.0,3.0,5.1,290.8,0.00,2.5,9.8,"20:20:32",1
"17/11/23","20:40",0.0,6.4,76.4,1010.7,288.9,2.3,4.4,320.4,0.00,2.6,9.9,"20:36:24",1
"17/11/23","20:50",0.0,6.6,75.5,1010.4,287.3,2.6,4.2,334.2,0.00,2.6,9.8,"20:44:24",1
"17/11/23","21:00",0.0,6.4,75.5,1010.9,287.0,2.6,4.7,317.1,0.00,2.4,9.8,"20:54:56",1
"17/11/23","21:10",0.0,6.1,76.6,1011.2,286.6,2.2,3.5,265.8,0.00,2.3,9.7,"21:01:04",1
"17/11/23","21:20",0.0,5.9,77.9,1010.9,282.5,2.2,2.9,299.5,0.00,2.4,9.5,"21:14:32",1
"17/11/23","21:30",0.0,5.7,78.2,1010.9,288.5,2.1,3.3,313.8,0.00,2.2,9.4,"21:29:44",1
"17/11/23","21:40",0.0,5.5,79.0,1011.2,297.9,2.1,2.7,298.7,0.00,2.2,9.7,"21:36:48",1
"17/11/23","21:50",0.0,5.5,80.6,1010.7,313.3,2.5,3.7,308.6,0.00,2.5,9.5,"21:49:28",1
"17/11/23","22:00",0.0,5.3,81.7,1011.2,286.5,1.8,3.1,321.8,0.00,2.5,9.4,"21:50:16",1
"17/11/23","22:10",0.0,5.3,82.5,1011.2,287.7,1.8,2.5,275.2,0.00,2.6,9.4,"22:02:32",1
"17/11/23","22:20",0.0,5.2,82.2,1011.2,313.1,2.1,2.7,315.7,0.00,2.5,9.4,"22:19:36",1
"17/11/23","22:30",0.0,4.7,83.1,1011.2,314.9,1.7,2.4,314.0,0.00,2.1,9.2,"22:25:52",1
"17/11/23","22:40",0.0,4.5,85.8,1011.4,307.1,1.8,2.8,318.2,0.00,2.4,9.1,"22:38:00",1
"17/11/23","22:50",0.0,4.5,85.7,1011.2,308.0,1.8,3.2,313.5,0.00,2.4,9.2,"22:45:44",1
"17/11/23","23:00",0.0,4.5,85.3,1010.9,308.7,2.0,3.4,318.2,0.00,2.3,9.5,"22:58:08",1
"17/11/23","23:10",0.0,4.6,84.7,1010.9,299.8,2.1,3.4,329.8,0.00,2.3,9.2,"23:01:54",1
"17/11/23","23:20",0.0,4.4,84.9,1011.2,303.1,1.6,2.7,329.1,0.00,2.1,9.2,"23:17:36",1
"17/11/23","23:30",0.0,4.3,84.7,1011.4,306.8,2.0,3.5,330.3,0.00,2.0,9.1,"23:22:56",1
"17/11/23","23:40",0.0,4.3,84.9,1011.2,309.3,2.0,3.3,315.7,0.00,2.0,9.2,"23:35:12",1
"17/11/23","23:50",0.0,4.5,84.3,1010.9,319.4,2.3,3.5,330.3,0.00,2.1,9.0,"23:48:24",1
"17/11/23","24:00",0.0,4.5,82.6,1011.2,308.6,2.1,3.9,332.4,0.00,1.8,9.1,"23:51:52",1
